Regional Weather Roundup
Issued by NWS Boston, MA

Current Version | Previous Version | Text Only | Print | Product List | Glossary Off
Versions: 1 2 3 4 5 6 7 8 9 10 11 12 13 14 15 16 17 18 19 20 21 22 23 24 25 26 27 28 29 30 31 32 33 34 35 36 37 38 39 40 41 42 43 44 45 46 47 48 49 50
663 ASUS41 KBOX 211310 RWRBOX REGIONAL WEATHER ROUNDUP NATIONAL WEATHER SERVICE BOSTON/NORTON MA 800 AM EST MON JAN 21 2019 NOTE: "FAIR" INDICATES FEW OR NO CLOUDS BELOW 12,000 FEET WITH NO SIGNIFICANT WEATHER AND/OR OBSTRUCTIONS TO VISIBILITY. MAZALL-211400- EASTERN MASSACHUSETTS CITY SKY/WX TMP DP RH WIND PRES REMARKS BOSTON MOCLDY 5 -8 55 W16G28 29.72R WCI -14 BEVERLY FRZ RAIN 3 -11 52 NW20G35 29.68R WCI -18 LAWRENCE CLOUDY 2 -12 52 NW12G28 29.72R WCI -15 BEDFORD MOCLDY 2 -13 49 W16G25 29.72R WCI -18 BLUE HILL N/A -2 -8 76 NW18G31 29.64R WCI -24 NORWOOD FAIR 3 -9 57 W13G18 29.74R WCI -14 MARSHFIELD CLOUDY 5 -6 61 W13G22 29.71R WCI -12 PLYMOUTH FAIR 3 -7 63 W15G26 29.71R WCI -16 TAUNTON FAIR 3 -9 57 W12G23 29.74R WCI -13 NEW BEDFORD FAIR 2 -7 66 W18G26 29.74R WCI -19 $$ MAZALL-211400- CAPE COD AND THE ISLANDS CITY SKY/WX TMP DP RH WIND PRES REMARKS FALMOUTH FAIR 3 -8 60 W21G29 29.72R WCI -18 HYANNIS FAIR 5 -7 57 W15G21 29.70R WCI -13 CHATHAM CLOUDY 7 32 100 W10G22 29.70R WCI -8 PROVINCETOWN LGT SNOW 8 4 83 W23G33 29.68R FOG WCI -13 NANTUCKET LGT SNOW 8 1 73 W16 29.72R WCI -10 MARTHAS VNYRD MOCLDY 5 -4 66 NW17G32 29.74R WCI -14 $$ MAZALL-211400- CENTRAL AND WESTERN MASSACHUSETTS CITY SKY/WX TMP DP RH WIND PRES REMARKS WORCESTER FAIR -6 -16 61 W30G38 29.62R WCI -34 FITCHBURG FAIR -3 -14 59 NW16G28 29.72R WCI -24 ORANGE N/A -4 -18 51 NW12 29.77R WCI -22 SPRINGFIELD PTCLDY -5 -18 52 NW14G23 29.82R WCI -25 WESTFIELD FAIR -5 -19 51 NW15 29.84R WCI -26 NORTH ADAMS CLOUDY -8 -17 64 W10G24 29.87R WCI -26 PITTSFIELD SNOW -11 -20 64 W23G45 29.76R VSB 1/2 WCI -38 $$ RIZALL-211400- RHODE ISLAND CITY SKY/WX TMP DP RH WIND PRES REMARKS PROVIDENCE FAIR 1 -9 62 NW17G25 29.78R WCI -19 NEWPORT FAIR 2 -7 66 W15G26 29.76R WCI -17 BLOCK ISLAND CLOUDY 4 -3 73 NW22G33 29.81R WCI -18 SMITHFIELD FAIR -2 -9 72 NW15G22 29.72R WCI -22 WESTERLY FAIR 3 -11 52 W15G25 29.83R WCI -16 $$ CTZALL-211400- CONNECTICUT CITY SKY/WX TMP DP RH WIND PRES REMARKS BRADLEY INTL FAIR -4 -18 51 NW21G31 29.86R WCI -28 HARTFORD FAIR -1 -15 51 NW12G21 29.91R WCI -18 BRIDGEPORT FAIR 5 -6 60 NW16G23 29.91R WCI -14 DANBURY FAIR 1 -9 62 W12G21 29.88R WCI -16 GROTON FAIR 2 -13 49 NW23G35 29.86R WCI -21 NEW HAVEN FAIR 3 -7 63 NW9 29.91R WCI -12 CHESTER FAIR 0 -13 55 CALM 29.83R MERIDEN FAIR 0 -11 59 W8G21 29.89R WCI -14 WILLIMANTIC FAIR -2 -11 65 W12G28 29.82R WCI -20 OXFORD FAIR -4 -9 79 NW13G18 29.83R WCI -23 $$ MEZ002-015-021-024-NHZ003-005-008-011-012-014-VTZ005-008-211400- NORTHERN NEW ENGLAND CITY SKY/WX TMP DP RH WIND PRES REMARKS PORTLAND ME CLOUDY 6 -8 52 NW10G20 29.63R WCI -9 BANGOR ME FLURRIES 9 1 70 NW16 29.51R WCI -8 CONCORD NH CLOUDY -2 -14 56 W20G26 29.70R WCI -24 MANCHESTER NH CLOUDY 1 -12 54 NW17G24 29.70R WCI -19 NASHUA NH CLOUDY 1 -9 62 W14G26 29.72R WCI -17 PORTSMOUTH NH CLOUDY 2 -12 52 W15G23 29.65R WCI -17 JAFFREY NH CLOUDY -5 -13 68 W9 29.64R WCI -22 KEENE NH CLOUDY -4 -15 59 NW8G21 29.78R WCI -19 BURLINGTON VT LGT SNOW -6 -13 71 NW13 29.90R WCI -25 MT. WASHINGTON SNOWSHWR -17 -17 100 NW26G44 N/A DRFTSNOWWCI -47 $$ NYZ052-076-211400- EASTERN NEW YORK CITY SKY/WX TMP DP RH WIND PRES REMARKS ALBANY LGT SNOW -7 -19 56 W18G30 29.98R BLWGSNOWWCI -30 NEW YORK CITY MOCLDY 6 -6 57 NW29G37 29.99R WCI -17 $$ ANZALL-211400- MARINE OBSERVATIONS STATION/POSITION TIME TEMP WIND PRES VSBY WAVE AIR SEA DIR/SP/G HT/PER (UTC) (F) (DEG/KT/KT) (MB) (MI) (FT/S) BOSTON BUOY 1250 8 42 300/ 23/ 31 1004.5R 6/ 5 BUZZARDS BAY 1200 5 300/ 29/ 32 1007.3R NANTUCKET SOUND 1250 7 35 300/ 21/ 29 1006.5R 3/ 4 MASS BAY-STELLWA 1204 9 41 300/ 23/ 29 1002.6R 1 3/8 5/ 5 ISLE OF SHOALS 1200 4 300/ 22/ 26 1002.7R S OF BLOCK IS 1300 45 N/A 12/ 7 $$ ......................KEY......................... SKY/WX - SKY CONDITION/PRESENT WEATHER TMP - TEMPERATURE IN FAHRENHEIT DWPT - DEWPOINT IN FAHRENHEIT RH - RELATIVE HUMIDITY IN PERCENT WIND - DIRECTION AND SPEED IN MPH PRES - MEAN SEA LEVEL PRESSURE IN INCHES OF HG WCI - WIND CHILL INDEX VSB - VISIBILITY IN MILES HX - HEAT INDEX TC - TEMPERATURE IN CELSIUS VRB - VARIABLE WIND DIRECTION N/A - NOT AVAILABLE

USA.gov is the U.S. government's official web portal to all federal, state and local government web resources and services.